ESSA 1 (OT-3)

Satellite information

Favourite Embed

Satellite Type and Status

PAYLOADIN ORBIT

Key statistics

Satellite ESSA 1 (OT-3) at a glance.

Uptime

21759

Days in orbit

Revolutions

≈ 14.5

Per day

Orbit

SSO

Sun Synchronous Orbit

Inclination

97.9

Latest

Satellite identification and parameters

Extended collection of information and parameters for ESSA 1 (OT-3).

Object identification

Identified? True

Debris? False

Object name: ESSA 1 (OT-3)

International designator: 1966-008A

Object number (NORAD): 1982

Object ID (CCSDS): 1982

Country: UNITED STATES OF AMERICA (US)

Current information (Y/N): Y

RCS size: MEDIUM

Orbital parameters

Period: 99.436 minutes

Inclination: 97.8548 deg

SMA: 7109.785 km

Apoapsis: 787.555 km

Periapsis: 675.744 km

RAAN: 290.7346 deg

Eccentricy: 0.00786321

Argument of periapsis: 281.9164 deg

Mean anomaly: 77.3222 deg

Mean motion: 14.48165171 rev/day

Mean motion (dot): 0.00000241 rev/day2

B* drag term: 0.000073388561 1/REarth

Two-line elements (TLE)

Creation date: Aug. 31, 2025, 2:26 a.m.

Reference frame: TEME

Reference center: EARTH

Epoch: Aug. 30, 2025, 5:56 p.m. UTC

TLE line 0: 0 ESSA 1 (OT-3)

TLE line 1: 1 01982U 66008A 25242.74764302 .00000241 00000-0 73389-4 0 9999

TLE line 2: 2 01982 97.8548 290.7346 0078632 281.9164 77.3222 14.48165171115908

Live tracking on map

Real-time ground track for satellite ESSA 1 (OT-3).

In-orbit conjunctions

A list of the most updated potential collisions computed for object ESSA 1 (OT-3).

Target Orbit TCA Probability of collision Miss distance Type
NOAA 16 DEB SSO 2025-05-28 19:17:28 0.0001198616 488.0 (m) DEBRIS
COSMOS 1818 COOLANT LEO 2025-04-12 12:11:29 0.0001819088 765.0 (m) DEBRIS
COSMOS 252 DEB LEO 2025-02-17 05:30:15 0.000310172 93.0 (m) DEBRIS
FENGYUN 1C DEB SSO 2024-11-10 05:28:24 0.0001491729 936.0 (m) DEBRIS
SL-16 DEB LEO 2024-06-19 13:12:18 0.0008425913 277.0 (m) DEBRIS

Associated space launch

The ESSA series was the second generation of US meterological satellites after the TIROS (Television & Infra-Red Observation Satellite) series. They were also called OT (Operational TIROS), TOS (TIROS Operational Satellite).

ESSA 1 (OT-3) was lifted into orbit during the mission ‘Thor Delta C | ESSA 1’, on board a Thor Delta C space rocket.

The launch took place on Feb. 3, 1966, 7:41 a.m. from Space Launch Complex 17A.

For more information about the launch, click the button.

Launch to space Thor Delta C | ESSA 1
Thor Delta C | ESSA 1

Agency: N/A

Status: Launch Successful

Launch date: Feb. 3, 1966, 7:41 a.m. UTC

Rocket: Thor Delta C

Launch pad: Space Launch Complex 17A

Location: Cape Canaveral SFS, FL, USA

...

Latest news about this satellite

There are no fresh news available about this satellite. Check back as we update our databases every day.


Newsletter sign-up

Weekly statistics, charts and insights to help you stay on top of the space industry.